Airfield :
LOGIN :

Register | Disclaimer

   EN    FR    IT 

 










Legend :    VFR   Marginal VFR   IFR   Intensive IFR   Very Intensive IFR
Visi :
Ceiling :
>= 8 km
>= 3000ft
5 to 8 km
1000 to 3000 ft
1500m to 5 km
500 to 1000 ft
800 to 1500m
200 to 500 ft
< 800m
< 200 ft
Symbols :   Thunderstorms  Fog  Heavy snow  Heavy precipitations  Wind > 20 kt
SIGMETs :     Misc.  Thunderstorms  Icing  Turbulence  Mountain Waves  Volcanic Ashes







- Airport Elevation : 2776 ft
- IATA code : VLL


LEVD - Valladolid

CURRENT METAR :
  • 201500Z 07011KT 360V110 CAVOK 30/M00 Q1023

EXPIRED METARs :
  • 201430Z 06010G20KT 030V100 CAVOK 30/M02 Q1023
  • 201400Z 07009KT 020V110 CAVOK 29/M02 Q1024
  • 201330Z 07010KT 030V100 CAVOK 29/M02 Q1024
  • 201300Z 06010KT 020V120 CAVOK 29/M01 Q1024
  • 201230Z 06010KT 020V110 CAVOK 28/M02 Q1024

TAF TAF LEVD
Valid from the 20 at 12:00 until the 21 at 12:00 UTC


201100Z 2012/2112 06010KT CAVOK TX32/2015Z TN14/2106Z
No reported NOTAMs for that airfield.



MET'MAP, your aeronautical weather chart ! - Copyright ORBIFLY December 2007 - Disclaimer

ORBIFLY MET'MAP TEAM :

Programming & Development : Alexandra Zaïnal
Concept & Development : Baudouin d'Aumeries
Co-Development & Prog : Marc-Olivier Méhu
Technical & hardware support : Manuel Goepfert

Contact : metmap@orbifly.com




SOURCES & CREDITS :

   NOAA